| time (UTC) | temp F | wind direction | speed knots | gust knots | rain 1hr in | rain 24hr in | rain mn in | humidity % | barometer mb |
| 20260503022144 | 84 | 98 | 1.7 | 7.8 | 0.00 | 0.00 | 0.05 | 100 | 1016.4 |
| 20260503021808 | 84 | 88 | 7.0 | 7.0 | 0.00 | 0.00 | 0.05 | 100 | 1016.5 |
| 20260503021043 | 84 | 88 | 1.7 | 7.0 | 0.00 | 0.00 | 0.05 | 100 | 1016.5 |
| 20260503020708 | 84 | 101 | 7.0 | 7.0 | 0.00 | 0.00 | 0.05 | 100 | 1016.5 |
| 20260503015748 | 84 | 84 | 1.7 | 9.6 | 0.00 | 0.00 | 0.05 | 100 | 1016.6 |
| 20260503014929 | 84 | 92 | 1.7 | 7.0 | 0.00 | 0.00 | 0.05 | 100 | 1016.7 |
| 20260503014623 | 84 | 102 | 6.1 | 6.1 | 0.00 | 0.00 | 0.05 | 100 | 1016.7 |
| 20260503013844 | 83 | 89 | 1.7 | 7.0 | 0.00 | 0.00 | 0.05 | 100 | 1016.9 |
| 20260503013443 | 84 | 107 | 6.1 | 7.0 | 0.00 | 0.00 | 0.05 | 100 | 1017.1 |
| 20260503012844 | 84 | 105 | 0.9 | 7.0 | 0.00 | 0.00 | 0.05 | 100 | 1017.0 |
| 20260503012305 | 84 | 98 | 5.2 | 5.2 | 0.00 | 0.00 | 0.05 | 100 | 1017.2 |
| 20260503011951 | 84 | 94 | 0.9 | 7.0 | 0.00 | 0.00 | 0.05 | 100 | 1017.3 |
| 20260503011527 | 83 | 108 | 5.2 | 5.2 | 0.00 | 0.00 | 0.05 | 100 | 1017.2 |
| 20260503011150 | 83 | 112 | 0.9 | 7.8 | 0.00 | 0.00 | 0.05 | 100 | 1017.3 |
| 20260503010751 | 83 | 96 | 6.1 | 6.1 | 0.00 | 0.00 | 0.05 | 100 | 1017.3 |
| 20260503010208 | 83 | 99 | 0.9 | 7.0 | 0.00 | 0.00 | 0.05 | 100 | 1017.5 |
| 20260503005906 | 83 | 93 | 7.0 | 7.8 | 0.00 | 0.00 | 0.05 | 100 | 1017.5 |
| 20260503005130 | 83 | 101 | 7.0 | 10.4 | 0.00 | 0.00 | 0.05 | 100 | 1017.6 |
| 20260503004830 | 82 | 95 | 1.7 | 6.1 | 0.00 | 0.00 | 0.05 | 100 | 1017.6 |
| 20260503004439 | 82 | 96 | 6.1 | 6.1 | 0.00 | 0.00 | 0.05 | 100 | 1017.6 |
| 20260503004132 | 82 | 83 | 1.7 | 6.1 | 0.00 | 0.00 | 0.05 | 100 | 1017.7 |
| 20260503003756 | 82 | 96 | 6.1 | 6.1 | 0.00 | 0.00 | 0.05 | 100 | 1017.7 |
| 20260503003024 | 81 | 90 | 1.7 | 6.1 | 0.00 | 0.00 | 0.05 | 100 | 1018.0 |
| 20260503002024 | 80 | 102 | 3.5 | 6.1 | 0.00 | 0.00 | 0.05 | 100 | 1017.9 |
| 20260503001026 | 79 | 99 | 2.6 | 9.6 | 0.00 | 0.00 | 0.05 | 100 | 1017.8 |
| 20260503000722 | 79 | 104 | 9.6 | 9.6 | 0.00 | 0.00 | 0.05 | 100 | 1017.8 |
| 20260503000140 | 79 | 75 | 5.2 | 9.6 | 0.00 | 0.00 | 0.05 | 100 | 1017.8 |
| 20260502235635 | 79 | 112 | 0.9 | 8.7 | 0.00 | 0.00 | 0.05 | 100 | 1017.8 |
| 20260502234954 | 78 | 101 | 5.2 | 13.9 | 0.00 | 0.00 | 0.05 | 100 | 1017.8 |
| 20260502234655 | 78 | 83 | 12.2 | 12.2 | 0.00 | 0.00 | 0.05 | 100 | 1017.9 |
| 20260502234346 | 78 | 82 | 7.8 | 15.6 | 0.00 | 0.00 | 0.05 | 100 | 1017.9 |
| 20260502234043 | 78 | 93 | 2.6 | 16.5 | 0.00 | 0.00 | 0.05 | 100 | 1018.0 |
| 20260502233552 | 77 | 98 | 7.0 | 17.4 | 0.00 | 0.00 | 0.05 | 100 | 1017.9 |
| 20260502233249 | 77 | 103 | 11.3 | 11.3 | 0.00 | 0.00 | 0.05 | 100 | 1018.0 |
| 20260502232552 | 77 | 100 | 4.3 | 14.8 | 0.00 | 0.00 | 0.05 | 100 | 1017.9 |
| 20260502232252 | 76 | 104 | 10.4 | 14.8 | 0.00 | 0.00 | 0.05 | 100 | 1017.9 |
| 20260502231624 | 76 | 80 | 11.3 | 16.5 | 0.00 | 0.00 | 0.05 | 100 | 1017.9 |
| 20260502231219 | 76 | 87 | 6.1 | 17.4 | 0.00 | 0.00 | 0.05 | 100 | 1017.9 |
| 20260502230914 | 76 | 95 | 10.4 | 15.6 | 0.00 | 0.00 | 0.05 | 100 | 1018.0 |
| 20260502230611 | 76 | 89 | 5.2 | 13.9 | 0.00 | 0.00 | 0.05 | 100 | 1017.8 |
| 20260502230252 | 76 | 95 | 9.6 | 10.4 | 0.00 | 0.00 | 0.05 | 100 | 1018.0 |
| 20260502225941 | 75 | 93 | 5.2 | 10.4 | 0.00 | 0.00 | 0.05 | 100 | 1018.0 |
| 20260502225621 | 75 | 104 | 10.4 | 11.3 | 0.00 | 0.00 | 0.05 | 100 | 1017.9 |
| 20260502225150 | 75 | 87 | 5.2 | 12.2 | 0.00 | 0.00 | 0.05 | 100 | 1017.9 |
| 20260502224849 | 75 | 106 | 10.4 | 10.4 | 0.00 | 0.00 | 0.05 | 100 | 1017.8 |
| 20260502224348 | 74 | 72 | 6.1 | 6.1 | 0.00 | 0.00 | 0.05 | 100 | 1017.8 |
| 20260502223613 | 74 | 112 | 0.9 | 6.1 | 0.00 | 0.00 | 0.05 | 100 | 1017.8 |
| 20260502223206 | 74 | 81 | 6.1 | 6.1 | 0.00 | 0.00 | 0.05 | 100 | 1017.9 |
| 20260502222500 | 73 | 102 | 0.9 | 5.2 | 0.00 | 0.00 | 0.05 | 100 | 1017.9 |
| 20260502221458 | 72 | 108 | 1.7 | 8.7 | 0.00 | 0.00 | 0.05 | 100 | 1017.6 |
| 20260502221157 | 72 | 89 | 7.0 | 7.0 | 0.00 | 0.00 | 0.05 | 100 | 1017.6 |
| 20260502220715 | 72 | 94 | 2.6 | 10.4 | 0.00 | 0.00 | 0.05 | 100 | 1017.8 |
| 20260502220414 | 72 | 106 | 10.4 | 10.4 | 0.00 | 0.00 | 0.05 | 100 | 1017.7 |
| 20260502220114 | 72 | 83 | 5.2 | 5.2 | 0.00 | 0.00 | 0.05 | 100 | 1017.7 |
| 20260502214914 | 71 | 81 | 5.2 | 5.2 | 0.00 | 0.00 | 0.05 | 100 | 1017.6 |
| 20260502214223 | 71 | 112 | 0.9 | 5.2 | 0.00 | 0.00 | 0.05 | 100 | 1017.7 |
| 20260502213921 | 71 | 67 | 5.2 | 5.2 | 0.00 | 0.00 | 0.05 | 100 | 1017.5 |
| 20260502213440 | 71 | 112 | 0.9 | 3.5 | 0.00 | 0.00 | 0.05 | 100 | 1017.4 |
| 20260502212442 | 71 | 94 | 0.9 | 4.3 | 0.00 | 0.00 | 0.05 | 100 | 1017.5 |
| 20260502211438 | 70 | 101 | 0.9 | 4.3 | 0.00 | 0.00 | 0.05 | 100 | 1017.4 |
| 20260502210439 | 70 | 104 | 1.7 | 5.2 | 0.00 | 0.00 | 0.05 | 100 | 1017.3 |
| 20260502210057 | 70 | 112 | 6.1 | 6.1 | 0.00 | 0.00 | 0.05 | 100 | 1017.1 |
| 20260502205746 | 70 | 102 | 1.7 | 7.0 | 0.00 | 0.00 | 0.05 | 100 | 1017.1 |
| 20260502205408 | 70 | 73 | 6.1 | 6.1 | 0.00 | 0.00 | 0.02 | 100 | 1017.1 |
| 20260502205041 | 70 | 68 | 1.7 | 6.1 | 0.00 | 0.00 | 0.02 | 100 | 1017.0 |
| 20260502204039 | 70 | 81 | 5.2 | 5.2 | 0.00 | 0.00 | 0.02 | 100 | 1016.9 |
| 20260502203722 | 70 | 91 | 0.9 | 7.8 | 0.00 | 0.00 | 0.02 | 100 | 1017.0 |
| 20260502203357 | 70 | 72 | 5.2 | 5.2 | 0.00 | 0.00 | 0.02 | 100 | 1016.8 |
| 20260502202510 | 70 | 94 | 0.9 | 3.5 | 0.00 | 0.00 | 0.02 | 100 | 1016.7 |
| 20260502201509 | 69 | 81 | 0.9 | 5.2 | 0.00 | 0.00 | 0.02 | 100 | 1016.7 |
| 20260502201131 | 69 | 91 | 5.2 | 5.2 | 0.00 | 0.00 | 0.02 | 100 | 1016.8 |
| 20260502200514 | 70 | 91 | 0.9 | 4.3 | 0.00 | 0.00 | 0.02 | 100 | 1016.7 |
| 20260502195513 | 69 | 92 | 1.7 | 4.3 | 0.00 | 0.00 | 0.02 | 100 | 1016.5 |
| 20260502194513 | 69 | 99 | 0.9 | 5.2 | 0.00 | 0.00 | 0.02 | 100 | 1016.5 |
| 20260502193511 | 70 | 97 | 0.9 | 4.3 | 0.00 | 0.00 | 0.02 | 100 | 1016.5 |
| 20260502192511 | 70 | 92 | 1.7 | 5.2 | 0.00 | 0.00 | 0.02 | 100 | 1016.5 |
| 20260502191510 | 70 | 85 | 3.5 | 5.2 | 0.00 | 0.00 | 0.02 | 100 | 1016.3 |
| 20260502190509 | 70 | 90 | 2.6 | 4.3 | 0.00 | 0.00 | 0.02 | 100 | 1016.3 |
| 20260502185508 | 70 | 99 | 1.7 | 3.5 | 0.00 | 0.00 | 0.02 | 100 | 1016.3 |
| 20260502184507 | 70 | 112 | 0.9 | 6.1 | 0.00 | 0.00 | 0.02 | 100 | 1016.2 |
| 20260502184207 | 70 | 72 | 6.1 | 6.1 | 0.00 | 0.00 | 0.02 | 100 | 1016.3 |
| 20260502183414 | 70 | 89 | 1.7 | 7.0 | 0.00 | 0.00 | 0.02 | 100 | 1016.2 |
| 20260502183106 | 70 | 101 | 6.1 | 7.0 | 0.00 | 0.00 | 0.02 | 100 | 1016.3 |
| 20260502182805 | 70 | 100 | 0.9 | 5.2 | 0.00 | 0.00 | 0.02 | 100 | 1016.3 |
| 20260502181805 | 70 | 95 | 4.3 | 4.3 | 0.00 | 0.00 | 0.02 | 100 | 1016.4 |
| 20260502181248 | 71 | 107 | 0.0 | 3.5 | 0.00 | 0.00 | 0.02 | 100 | 1016.3 |
| 20260502180247 | 71 | 94 | 0.9 | 9.6 | 0.00 | 0.00 | 0.00 | 100 | 1016.2 |
| 20260502170437 | 71 | 105 | 5.2 | 5.2 | 0.00 | 0.00 | 0.00 | 100 | 1016.1 |
| 20260502164236 | 71 | 73 | 6.1 | 6.1 | 0.00 | 0.00 | 0.00 | 100 | 1016.2 |
| 20260502163845 | 71 | 112 | 0.9 | 5.2 | 0.00 | 0.00 | 0.00 | 100 | 1016.2 |
| 20260502162845 | 71 | 103 | 1.7 | 3.5 | 0.00 | 0.00 | 0.00 | 100 | 1016.3 |
| 20260502161846 | 72 | 68 | 3.5 | 4.3 | 0.00 | 0.00 | 0.00 | 100 | 1016.4 |
| 20260502160843 | 71 | 101 | 1.7 | 3.5 | 0.00 | 0.00 | 0.00 | 100 | 1016.4 |
| 20260502151627 | 72 | 90 | 0.9 | 6.1 | 0.00 | 0.00 | 0.00 | 100 | 1016.7 |
| 20260502150347 | 72 | 101 | 0.9 | 7.8 | 0.00 | 0.00 | 0.00 | 100 | 1016.8 |
| 20260502122944 | 73 | 108 | 1.7 | 3.5 | 0.00 | 0.00 | 0.00 | 100 | 1017.5 |
| 20260502121944 | 73 | 86 | 1.7 | 5.2 | 0.00 | 0.00 | 0.00 | 100 | 1017.5 |
| 20260502120942 | 73 | 90 | 1.7 | 2.6 | 0.00 | 0.00 | 0.00 | 100 | 1017.5 |
| 20260502114942 | 73 | 93 | 2.6 | 6.1 | 0.00 | 0.00 | 0.00 | 100 | 1017.4 |
| 20260502113940 | 73 | 82 | 2.6 | 3.5 | 0.00 | 0.00 | 0.00 | 100 | 1017.4 |
| 20260502112939 | 73 | 112 | 0.9 | 4.3 | 0.00 | 0.00 | 0.00 | 100 | 1017.5 |
| 20260502111939 | 73 | 112 | 0.9 | 4.3 | 0.00 | 0.00 | 0.00 | 100 | 1017.5 |
| 20260502110937 | 73 | 105 | 1.7 | 3.5 | 0.00 | 0.00 | 0.00 | 100 | 1017.7 |
| 20260502105936 | 73 | 102 | 2.6 | 4.3 | 0.00 | 0.00 | 0.00 | 100 | 1017.6 |
| 20260502104936 | 73 | 84 | 0.9 | 2.6 | 0.00 | 0.00 | 0.00 | 100 | 1017.7 |
| 20260502103934 | 73 | 112 | 0.9 | 2.6 | 0.00 | 0.00 | 0.00 | 100 | 1017.7 |
| 20260502102933 | 73 | 112 | 0.9 | 2.6 | 0.00 | 0.00 | 0.00 | 100 | 1017.8 |
| 20260502101933 | 74 | 79 | 0.9 | 3.5 | 0.00 | 0.00 | 0.00 | 100 | 1017.7 |
| 20260502100932 | 74 | 94 | 0.0 | 4.3 | 0.00 | 0.00 | 0.00 | 100 | 1017.5 |
| 20260502091341 | 75 | 107 | 5.2 | 5.2 | 0.00 | 0.00 | 0.00 | 100 | 1016.7 |
| 20260502090846 | 75 | 112 | 0.9 | 6.1 | 0.00 | 0.00 | 0.00 | 100 | 1016.6 |
| 20260502070807 | 77 | 112 | 0.9 | 5.2 | 0.00 | 0.00 | 0.00 | 100 | 1015.6 |
| 20260502070500 | 77 | 104 | 5.2 | 5.2 | 0.00 | 0.00 | 0.00 | 100 | 1015.5 |
| 20260502065459 | 77 | 106 | 1.7 | 4.3 | 0.00 | 0.00 | 0.00 | 100 | 1015.4 |
| 20260502064459 | 77 | 103 | 1.7 | 7.0 | 0.00 | 0.00 | 0.00 | 100 | 1015.3 |
| 20260502064135 | 77 | 108 | 6.1 | 6.1 | 0.00 | 0.00 | 0.00 | 100 | 1015.3 |
| 20260502063522 | 78 | 99 | 1.7 | 7.8 | 0.00 | 0.00 | 0.00 | 100 | 1015.3 |
| 20260502063144 | 78 | 109 | 6.1 | 6.1 | 0.00 | 0.00 | 0.00 | 100 | 1015.2 |
| 20260502062551 | 78 | 95 | 0.9 | 6.1 | 0.00 | 0.00 | 0.00 | 100 | 1015.3 |
| 20260502061553 | 78 | 91 | 1.7 | 7.8 | 0.00 | 0.00 | 0.00 | 100 | 1015.1 |
| 20260502061407 | 78 | 106 | 7.0 | 7.0 | 0.00 | 0.00 | 0.00 | 100 | 1015.2 |
| 20260502061253 | 78 | 106 | 7.0 | 7.0 | 0.00 | 0.00 | 0.00 | 100 | 1015.2 |
| 20260502060805 | 78 | 112 | 2.6 | 7.0 | 0.00 | 0.00 | 0.00 | 100 | 1015.1 |
| 20260502060440 | 78 | 101 | 7.0 | 7.0 | 0.00 | 0.00 | 0.00 | 100 | 1015.2 |
| 20260502055846 | 78 | 96 | 2.6 | 5.2 | 0.00 | 0.00 | 0.00 | 100 | 1015.1 |
| 20260502054846 | 79 | 99 | 1.7 | 5.2 | 0.00 | 0.00 | 0.00 | 100 | 1015.1 |
| 20260502054531 | 79 | 99 | 6.1 | 6.1 | 0.00 | 0.00 | 0.00 | 100 | 1015.0 |
| 20260502054141 | 79 | 104 | 1.7 | 6.1 | 0.00 | 0.00 | 0.00 | 100 | 1015.0 |
| 20260502053833 | 79 | 108 | 6.1 | 7.8 | 0.00 | 0.00 | 0.00 | 100 | 1015.0 |
| 20260502053404 | 79 | 107 | 1.7 | 6.1 | 0.00 | 0.00 | 0.00 | 100 | 1015.0 |
| 20260502053103 | 79 | 108 | 6.1 | 6.1 | 0.00 | 0.00 | 0.00 | 100 | 1015.0 |
| 20260502052412 | 79 | 104 | 1.7 | 3.5 | 0.00 | 0.00 | 0.00 | 100 | 1015.0 |
| 20260502051412 | 79 | 112 | 1.7 | 7.0 | 0.00 | 0.00 | 0.00 | 100 | 1014.9 |
| 20260502051051 | 80 | 105 | 6.1 | 6.1 | 0.00 | 0.00 | 0.00 | 100 | 1015.0 |
| 20260502045759 | 80 | 109 | 6.1 | 6.1 | 0.00 | 0.00 | 0.00 | 100 | 1015.1 |
| 20260502044908 | 80 | 99 | 1.7 | 6.1 | 0.00 | 0.00 | 0.00 | 100 | 1015.2 |
| 20260502044608 | 80 | 104 | 6.1 | 6.1 | 0.00 | 0.00 | 0.00 | 100 | 1015.3 |
| 20260502044137 | 80 | 104 | 1.7 | 6.1 | 0.00 | 0.00 | 0.00 | 100 | 1015.2 |
| 20260502043855 | 80 | 112 | 6.1 | 6.1 | 0.00 | 0.00 | 0.00 | 100 | 1015.1 |
| 20260502043739 | 80 | 112 | 6.1 | 6.1 | 0.00 | 0.00 | 0.00 | 100 | 1015.1 |
| 20260502042839 | 80 | 95 | 1.7 | 6.1 | 0.00 | 0.00 | 0.00 | 100 | 1015.5 |
| 20260502042535 | 80 | 102 | 6.1 | 6.1 | 0.00 | 0.00 | 0.00 | 100 | 1015.4 |
| 20260502042135 | 80 | 106 | 1.7 | 7.0 | 0.00 | 0.00 | 0.00 | 100 | 1015.2 |
| 20260502041832 | 80 | 109 | 6.1 | 6.1 | 0.00 | 0.00 | 0.00 | 100 | 1015.3 |
| 20260502041237 | 80 | 90 | 1.7 | 5.2 | 0.00 | 0.00 | 0.00 | 100 | 1015.3 |
| 20260502040430 | 80 | 104 | 2.6 | 7.8 | 0.00 | 0.00 | 0.00 | 100 | 1015.4 |
| 20260502040239 | 80 | 104 | 2.6 | 7.8 | 0.00 | 0.00 | 0.00 | 100 | 1015.4 |
| 20260502035845 | 81 | 103 | 7.0 | 7.0 | 0.00 | 0.00 | 0.00 | 100 | 1015.3 |
| 20260502035212 | 81 | 110 | 2.6 | 7.8 | 0.00 | 0.00 | 0.00 | 100 | 1015.5 |
| 20260502034911 | 82 | 108 | 9.6 | 9.6 | 0.00 | 0.00 | 0.00 | 100 | 1015.5 |
| 20260502034610 | 82 | 90 | 1.7 | 7.0 | 0.00 | 0.00 | 0.00 | 100 | 1015.5 |
| 20260502034157 | 82 | 108 | 6.1 | 7.8 | 0.00 | 0.00 | 0.00 | 100 | 1015.5 |
| 20260502033652 | 83 | 108 | 1.7 | 10.4 | 0.00 | 0.00 | 0.00 | 100 | 1015.6 |
| 20260502033343 | 83 | 94 | 6.1 | 6.1 | 0.00 | 0.00 | 0.00 | 100 | 1015.6 |
| 20260502032459 | 83 | 91 | 0.9 | 5.2 | 0.00 | 0.00 | 0.00 | 100 | 1015.7 |
| 20260502032200 | 83 | 108 | 6.1 | 6.1 | 0.00 | 0.00 | 0.00 | 100 | 1015.6 |
| 20260502031708 | 83 | 108 | 1.7 | 6.1 | 0.00 | 0.00 | 0.00 | 100 | 1015.8 |
| 20260502030709 | 83 | 109 | 5.2 | 7.0 | 0.00 | 0.00 | 0.00 | 100 | 1015.9 |
| 20260502030400 | 83 | 112 | 0.0 | 5.2 | 0.00 | 0.00 | 0.00 | 100 | 1016.0 |
| 20260502030100 | 83 | 112 | 6.1 | 7.0 | 0.00 | 0.00 | 0.00 | 100 | 1015.9 |
| 20260502025433 | 83 | 99 | 1.7 | 6.1 | 0.00 | 0.00 | 0.00 | 100 | 1016.0 |
| 20260502025107 | 82 | 111 | 6.1 | 6.1 | 0.00 | 0.00 | 0.00 | 100 | 1016.1 |
| 20260502024805 | 82 | 108 | 0.9 | 5.2 | 0.00 | 0.00 | 0.00 | 100 | 1016.2 |
| 20260502023803 | 81 | 102 | 1.7 | 6.1 | 0.00 | 0.00 | 0.00 | 100 | 1016.4 |
| 20260502023506 | 82 | 101 | 6.1 | 6.1 | 0.00 | 0.00 | 0.00 | 100 | 1016.4 |
| 20260502023140 | 82 | 97 | 1.7 | 7.8 | 0.00 | 0.00 | 0.00 | 100 | 1016.5 |